GIA620 WADD-WAAA

Flight info

Callsign GIA620
Flight time 0h 54m
Altitude 35000
Route PEDET W41 LIPOT
Aircraft B77W/H-SDE1E2E3FGHIJ2J3J4J5M1RWXY/LB1D1

Departure

Time 2026-04-22 12:57
Airport Denpasar I Gusti Ngurah Rai International Airport (WADD)

Arrival

Time 2026-04-22 13:51
Airport Sultan Hasanuddin International Airport (WAAA)
Time Latitude Longitude Altitude Speed Heading
2026-04-22 11:21 -8.74582 115.16542 32 ft 0 kts 358°
2026-04-22 12:46 -8.74592 115.16542 31 ft 2 kts 358°
2026-04-22 12:46 -8.74607 115.16543 30 ft 2 kts 358°
2026-04-22 12:47 -8.74622 115.16544 30 ft 2 kts 358°
2026-04-22 12:47 -8.74637 115.16544 29 ft 2 kts 358°
2026-04-22 12:47 -8.74652 115.16544 29 ft 2 kts 358°
2026-04-22 12:47 -8.74667 115.16545 29 ft 1 kts 358°
2026-04-22 12:48 -8.74677 115.16545 29 ft 2 kts 348°
2026-04-22 12:48 -8.74690 115.16551 29 ft 2 kts 315°
2026-04-22 12:48 -8.74698 115.16563 28 ft 2 kts 289°
2026-04-22 12:48 -8.74701 115.16575 28 ft 0 kts 268°
2026-04-22 12:49 -8.74700 115.16580 28 ft 0 kts 266°
2026-04-22 12:51 -8.74701 115.16580 28 ft 0 kts 266°
2026-04-22 12:51 -8.74701 115.16574 28 ft 3 kts 267°
2026-04-22 12:52 -8.74703 115.16531 29 ft 8 kts 268°
2026-04-22 12:52 -8.74706 115.16454 30 ft 13 kts 268°
2026-04-22 12:52 -8.74711 115.16348 30 ft 16 kts 268°
2026-04-22 12:52 -8.74715 115.16234 29 ft 16 kts 268°
2026-04-22 12:53 -8.74719 115.16120 27 ft 16 kts 268°
2026-04-22 12:53 -8.74727 115.15996 23 ft 18 kts 267°
2026-04-22 12:53 -8.74732 115.15865 20 ft 18 kts 268°
2026-04-22 12:53 -8.74737 115.15733 20 ft 18 kts 267°
2026-04-22 12:54 -8.74743 115.15612 21 ft 15 kts 266°
2026-04-22 12:54 -8.74746 115.15555 22 ft 4 kts 267°
2026-04-22 12:54 -8.74747 115.15530 22 ft 2 kts 267°
2026-04-22 12:54 -8.74749 115.15505 22 ft 4 kts 267°
2026-04-22 12:55 -8.74750 115.15478 22 ft 6 kts 267°
2026-04-22 12:55 -8.74752 115.15452 22 ft 3 kts 260°
2026-04-22 12:55 -8.74765 115.15423 23 ft 5 kts 229°
2026-04-22 12:55 -8.74812 115.15402 25 ft 9 kts 186°
2026-04-22 12:56 -8.74879 115.15406 26 ft 8 kts 165°
2026-04-22 12:56 -8.74913 115.15433 26 ft 8 kts 111°
2026-04-22 12:56 -8.74913 115.15540 24 ft 27 kts 86°
2026-04-22 12:56 -8.74891 115.16003 23 ft 96 kts 90°
2026-04-22 12:57 -8.74848 115.16997 80 ft 185 kts 87°
2026-04-22 12:57 -8.74792 115.18439 908 ft 218 kts 85°
2026-04-22 12:57 -8.74709 115.19925 1854 ft 212 kts 86°
2026-04-22 12:57 -8.74644 115.21481 2489 ft 232 kts 86°
2026-04-22 12:58 -8.74576 115.23141 3263 ft 246 kts 87°
2026-04-22 12:58 -8.74512 115.24902 4027 ft 262 kts 87°
2026-04-22 12:58 -8.74434 115.26762 4949 ft 270 kts 87°
2026-04-22 12:58 -8.74356 115.28661 5929 ft 275 kts 87°
2026-04-22 12:59 -8.74277 115.30589 6878 ft 279 kts 87°
2026-04-22 12:59 -8.74200 115.32527 7785 ft 282 kts 87°
2026-04-22 12:59 -8.74119 115.34507 8587 ft 287 kts 87°
2026-04-22 12:59 -8.74036 115.36532 9029 ft 291 kts 87°
2026-04-22 13:00 -8.73953 115.38581 9129 ft 295 kts 87°
2026-04-22 13:00 -8.73866 115.40696 10018 ft 305 kts 88°
2026-04-22 13:00 -8.73779 115.42815 11195 ft 308 kts 88°
2026-04-22 13:00 -8.73688 115.45019 11717 ft 325 kts 87°
2026-04-22 13:01 -8.73455 115.47343 12274 ft 339 kts 79°
2026-04-22 13:01 -8.72828 115.49697 12876 ft 354 kts 70°
2026-04-22 13:01 -8.71798 115.51958 13540 ft 366 kts 60°
2026-04-22 13:01 -8.70320 115.54121 14230 ft 380 kts 50°
2026-04-22 13:02 -8.68471 115.56087 14737 ft 391 kts 45°
2026-04-22 13:02 -8.66507 115.58026 14835 ft 394 kts 45°
2026-04-22 13:02 -8.64552 115.59959 14839 ft 394 kts 45°
2026-04-22 13:02 -8.62543 115.61955 15294 ft 412 kts 45°
2026-04-22 13:03 -8.60522 115.63968 16522 ft 408 kts 45°
2026-04-22 13:03 -8.58536 115.65949 17648 ft 407 kts 45°
2026-04-22 13:03 -8.56561 115.68032 18582 ft 410 kts 50°
2026-04-22 13:03 -8.54900 115.70375 19495 ft 413 kts 59°
2026-04-22 13:04 -8.53625 115.72944 20400 ft 416 kts 67°
2026-04-22 13:04 -8.52569 115.75681 21323 ft 417 kts 68°
2026-04-22 13:04 -8.51545 115.78392 22230 ft 418 kts 69°
2026-04-22 13:04 -8.50514 115.81121 23178 ft 419 kts 69°
2026-04-22 13:05 -8.49459 115.83908 23820 ft 428 kts 69°
2026-04-22 13:05 -8.48384 115.86744 24277 ft 442 kts 69°
2026-04-22 13:05 -8.47267 115.89686 24893 ft 451 kts 69°
2026-04-22 13:05 -8.46147 115.92636 25641 ft 456 kts 69°
2026-04-22 13:06 -8.45017 115.95611 26428 ft 460 kts 69°
2026-04-22 13:06 -8.43864 115.98645 27170 ft 465 kts 69°
2026-04-22 13:06 -8.42710 116.01686 27860 ft 470 kts 69°
2026-04-22 13:06 -8.41528 116.04800 28575 ft 475 kts 69°
2026-04-22 13:07 -8.40349 116.07905 29265 ft 480 kts 69°
2026-04-22 13:07 -8.39140 116.11087 29934 ft 485 kts 69°
2026-04-22 13:07 -8.37934 116.14262 30566 ft 490 kts 69°
2026-04-22 13:07 -8.36715 116.17468 31158 ft 495 kts 69°
2026-04-22 13:08 -8.35464 116.20758 31749 ft 500 kts 70°
2026-04-22 13:08 -8.34223 116.24020 32445 ft 501 kts 70°
2026-04-22 13:08 -8.32990 116.27262 33485 ft 496 kts 70°
2026-04-22 13:08 -8.31765 116.30479 34516 ft 492 kts 69°
2026-04-22 13:09 -8.30541 116.33695 34991 ft 491 kts 69°
2026-04-22 13:09 -8.29309 116.36933 34884 ft 487 kts 69°
2026-04-22 13:09 -8.28118 116.40064 34883 ft 480 kts 69°
2026-04-22 13:10 -8.25711 116.46393 34874 ft 482 kts 70°
2026-04-22 13:10 -8.22405 116.52396 34867 ft 484 kts 52°
2026-04-22 13:11 -8.17457 116.57081 34866 ft 485 kts 34°
2026-04-22 13:11 -8.11357 116.60010 34864 ft 487 kts 17°
2026-04-22 13:12 -8.04654 116.61029 34871 ft 487 kts
2026-04-22 13:12 -7.97804 116.61442 34868 ft 486 kts
2026-04-22 13:13 -7.91019 116.61845 34868 ft 487 kts
2026-04-22 13:13 -7.84244 116.62248 34866 ft 486 kts
2026-04-22 13:14 -7.77449 116.62653 34867 ft 486 kts
2026-04-22 13:14 -7.70665 116.63056 34868 ft 486 kts
2026-04-22 13:15 -7.63899 116.63459 34864 ft 485 kts
2026-04-22 13:15 -7.57130 116.64134 34864 ft 484 kts 14°
2026-04-22 13:16 -7.50839 116.66584 34853 ft 482 kts 31°
2026-04-22 13:16 -7.45626 116.70787 34847 ft 480 kts 48°
2026-04-22 13:17 -7.41269 116.75914 34849 ft 480 kts 51°
2026-04-22 13:17 -7.36973 116.81048 34848 ft 479 kts 51°
2026-04-22 13:18 -7.32665 116.86189 34847 ft 480 kts 51°
2026-04-22 13:18 -7.28364 116.91318 34847 ft 479 kts 51°
2026-04-22 13:19 -7.24053 116.96456 34848 ft 479 kts 50°
2026-04-22 13:19 -7.19732 117.01604 34854 ft 480 kts 51°
2026-04-22 13:20 -7.15426 117.06737 34841 ft 478 kts 50°
2026-04-22 13:20 -7.11144 117.11838 34848 ft 478 kts 50°
2026-04-22 13:21 -7.06818 117.16981 34848 ft 478 kts 50°
2026-04-22 13:21 -7.02528 117.22086 34848 ft 478 kts 51°
2026-04-22 13:22 -6.98206 117.27232 34846 ft 477 kts 50°
2026-04-22 13:22 -6.93910 117.32337 34846 ft 477 kts 50°
2026-04-22 13:23 -6.89639 117.37408 34846 ft 477 kts 50°
2026-04-22 13:23 -6.85344 117.42508 34845 ft 478 kts 50°
2026-04-22 13:24 -6.81043 117.47616 34846 ft 477 kts 50°
2026-04-22 13:24 -6.76756 117.52706 34845 ft 477 kts 50°
2026-04-22 13:25 -6.72471 117.57793 34851 ft 476 kts 50°
2026-04-22 13:25 -6.68145 117.62862 34853 ft 477 kts 46°
2026-04-22 13:26 -6.63246 117.67492 34864 ft 478 kts 43°
2026-04-22 13:26 -6.58368 117.71996 34860 ft 477 kts 43°
2026-04-22 13:27 -6.53445 117.76543 34865 ft 478 kts 43°
2026-04-22 13:27 -6.48529 117.81084 34866 ft 479 kts 43°
2026-04-22 13:28 -6.43625 117.85616 34861 ft 478 kts 43°
2026-04-22 13:28 -6.38742 117.90126 34849 ft 478 kts 43°
2026-04-22 13:29 -6.33811 117.94681 34848 ft 477 kts 43°
2026-04-22 13:29 -6.28906 117.99210 34846 ft 478 kts 43°
2026-04-22 13:30 -6.24009 118.03731 34846 ft 478 kts 43°
2026-04-22 13:30 -6.19112 118.08250 34845 ft 478 kts 43°
2026-04-22 13:31 -6.14196 118.12785 34847 ft 478 kts 43°
2026-04-22 13:31 -6.09305 118.17297 34765 ft 474 kts 43°
2026-04-22 13:31 -6.06904 118.19511 34010 ft 473 kts 43°
2026-04-22 13:32 -6.04455 118.21768 32971 ft 477 kts 43°
2026-04-22 13:32 -6.02007 118.24026 32101 ft 477 kts 43°
2026-04-22 13:32 -5.99567 118.26275 31285 ft 478 kts 43°
2026-04-22 13:32 -5.97115 118.28535 30482 ft 477 kts 43°
2026-04-22 13:33 -5.94683 118.30777 29992 ft 470 kts 43°
2026-04-22 13:33 -5.92300 118.32973 29498 ft 463 kts 43°
2026-04-22 13:33 -5.89942 118.35146 28954 ft 458 kts 43°
2026-04-22 13:33 -5.87623 118.37281 28728 ft 445 kts 43°
2026-04-22 13:34 -5.85304 118.39418 28727 ft 459 kts 43°
2026-04-22 13:34 -5.82907 118.41626 28729 ft 471 kts 43°
2026-04-22 13:34 -5.80520 118.43825 28729 ft 464 kts 43°
2026-04-22 13:35 -5.75835 118.48148 28726 ft 455 kts 43°
2026-04-22 13:35 -5.71154 118.52475 28724 ft 456 kts 43°
2026-04-22 13:36 -5.66459 118.56812 28720 ft 458 kts 43°
2026-04-22 13:36 -5.64106 118.58986 28584 ft 461 kts 43°
2026-04-22 13:36 -5.61734 118.61177 27982 ft 466 kts 43°
2026-04-22 13:36 -5.59492 118.63486 27254 ft 464 kts 51°
2026-04-22 13:37 -5.57602 118.66102 26426 ft 458 kts 59°
2026-04-22 13:37 -5.56139 118.68903 25463 ft 457 kts 66°
2026-04-22 13:37 -5.55006 118.71857 24456 ft 455 kts 69°
2026-04-22 13:37 -5.53938 118.74803 23537 ft 449 kts 70°
2026-04-22 13:38 -5.52884 118.77718 22640 ft 443 kts 69°
2026-04-22 13:38 -5.50816 118.83436 20954 ft 432 kts 69°
2026-04-22 13:38 -5.49803 118.86237 20140 ft 424 kts 69°
2026-04-22 13:39 -5.48811 118.88979 19330 ft 418 kts 69°
2026-04-22 13:39 -5.47827 118.91698 18495 ft 412 kts 69°
2026-04-22 13:39 -5.46855 118.94385 17651 ft 407 kts 69°
2026-04-22 13:39 -5.45901 118.97023 16851 ft 401 kts 69°
2026-04-22 13:40 -5.44959 118.99625 15968 ft 393 kts 69°
2026-04-22 13:40 -5.44037 119.02171 14967 ft 388 kts 69°
2026-04-22 13:40 -5.43126 119.04686 13964 ft 383 kts 70°
2026-04-22 13:40 -5.42236 119.07144 13104 ft 373 kts 70°
2026-04-22 13:41 -5.41376 119.09515 12574 ft 354 kts 70°
2026-04-22 13:41 -5.40555 119.11784 12131 ft 336 kts 70°
2026-04-22 13:41 -5.39773 119.13945 11692 ft 322 kts 70°
2026-04-22 13:41 -5.39028 119.16001 11172 ft 311 kts 70°
2026-04-22 13:42 -5.38307 119.17990 10905 ft 294 kts 69°
2026-04-22 13:42 -5.37622 119.19882 10584 ft 282 kts 70°
2026-04-22 13:42 -5.36960 119.21706 10052 ft 279 kts 69°
2026-04-22 13:42 -5.36293 119.23547 9409 ft 280 kts 69°
2026-04-22 13:43 -5.35656 119.25365 8862 ft 278 kts 70°
2026-04-22 13:43 -5.35013 119.27175 8420 ft 270 kts 70°
2026-04-22 13:43 -5.34384 119.28924 8094 ft 263 kts 69°
2026-04-22 13:43 -5.33753 119.30626 7664 ft 263 kts 69°
2026-04-22 13:44 -5.33134 119.32342 7228 ft 263 kts 70°
2026-04-22 13:44 -5.32519 119.34053 6816 ft 261 kts 70°
2026-04-22 13:44 -5.31889 119.35749 6536 ft 250 kts 70°
2026-04-22 13:44 -5.31307 119.37365 5970 ft 249 kts 70°
2026-04-22 13:45 -5.30711 119.39005 5387 ft 248 kts 69°
2026-04-22 13:45 -5.30130 119.40616 4858 ft 247 kts 70°
2026-04-22 13:45 -5.29494 119.42218 4404 ft 243 kts 62°
2026-04-22 13:45 -5.28386 119.43421 4115 ft 230 kts 36°
2026-04-22 13:46 -5.27083 119.44241 3769 ft 216 kts 31°
2026-04-22 13:46 -5.25818 119.44955 3197 ft 203 kts 29°
2026-04-22 13:46 -5.24604 119.45613 2714 ft 195 kts 30°
2026-04-22 13:46 -5.23438 119.46260 2356 ft 188 kts 32°
2026-04-22 13:47 -5.22330 119.46893 2120 ft 174 kts 32°
2026-04-22 13:47 -5.21334 119.47488 1992 ft 159 kts 32°
2026-04-22 13:47 -5.20401 119.48010 2011 ft 149 kts 31°
2026-04-22 13:47 -5.19503 119.48529 2065 ft 148 kts 32°
2026-04-22 13:48 -5.18610 119.49042 2121 ft 147 kts 32°
2026-04-22 13:48 -5.17695 119.49564 2136 ft 147 kts 31°
2026-04-22 13:48 -5.16804 119.50082 2182 ft 147 kts 31°
2026-04-22 13:48 -5.15904 119.50578 2196 ft 148 kts 32°
2026-04-22 13:49 -5.15005 119.51097 1957 ft 147 kts 33°
2026-04-22 13:49 -5.14125 119.51615 1593 ft 148 kts 31°
2026-04-22 13:49 -5.13226 119.52119 1051 ft 147 kts 32°
2026-04-22 13:49 -5.12347 119.52628 570 ft 145 kts 33°
2026-04-22 13:50 -5.11779 119.52960 458 ft 142 kts 28°
2026-04-22 13:50 -5.10611 119.53610 408 ft 145 kts 30°
2026-04-22 13:50 -5.09736 119.54112 232 ft 143 kts 31°
2026-04-22 13:50 -5.08876 119.54602 74 ft 137 kts 31°
2026-04-22 13:51 -5.08156 119.55017 70 ft 97 kts 31°
2026-04-22 13:51 -5.07699 119.55283 71 ft 58 kts 31°
2026-04-22 13:51 -5.07418 119.55424 71 ft 36 kts 11°
2026-04-22 13:51 -5.07228 119.55429 71 ft 12 kts 358°
2026-04-22 13:52 -5.07205 119.55428 71 ft 0 kts 358°
2026-04-22 13:52 -5.07187 119.55428 71 ft 6 kts 353°
2026-04-22 13:52 -5.07176 119.55400 71 ft 5 kts 250°
2026-04-22 13:52 -5.07205 119.55370 71 ft 4 kts 216°
2026-04-22 13:53 -5.07223 119.55358 71 ft 1 kts 216°
2026-04-22 13:53 -5.07234 119.55351 71 ft 2 kts 212°
2026-04-22 13:53 -5.07241 119.55346 71 ft 1 kts 212°
2026-04-22 13:53 -5.07245 119.55344 71 ft 0 kts 212°
2026-04-22 13:54 -5.07255 119.55338 71 ft 3 kts 210°
2026-04-22 13:54 -5.07299 119.55313 71 ft 10 kts 210°
2026-04-22 13:54 -5.07382 119.55266 71 ft 16 kts 210°
2026-04-22 13:54 -5.07477 119.55212 71 ft 15 kts 210°
2026-04-22 13:55 -5.07569 119.55159 71 ft 15 kts 210°
2026-04-22 13:55 -5.07659 119.55106 71 ft 14 kts 211°
2026-04-22 13:55 -5.07747 119.55054 71 ft 14 kts 210°
2026-04-22 13:55 -5.07834 119.55005 70 ft 14 kts 210°
2026-04-22 13:56 -5.07919 119.54955 70 ft 14 kts 210°
2026-04-22 13:56 -5.07998 119.54909 70 ft 10 kts 210°
2026-04-22 13:56 -5.08046 119.54882 70 ft 3 kts 211°
2026-04-22 13:56 -5.08059 119.54863 70 ft 3 kts 261°
2026-04-22 13:57 -5.08051 119.54829 70 ft 6 kts 293°
2026-04-22 13:57 -5.08030 119.54790 70 ft 5 kts 301°
2026-04-22 13:57 -5.08006 119.54753 70 ft 7 kts 309°
2026-04-22 13:57 -5.07961 119.54736 70 ft 7 kts 10°
2026-04-22 13:58 -5.07916 119.54755 70 ft 5 kts 27°
2026-04-22 13:58 -5.07888 119.54770 70 ft 3 kts 28°
2026-04-22 13:58 -5.07866 119.54776 70 ft 3 kts 354°
2026-04-22 13:58 -5.07847 119.54766 70 ft 3 kts 316°
2026-04-22 13:59 -5.07839 119.54757 70 ft 2 kts 309°
2026-04-22 13:59 -5.07824 119.54735 70 ft 1 kts 301°
2026-04-22 13:59 -5.07820 119.54730 70 ft 0 kts 301°
2026-04-22 13:59 -5.07818 119.54726 70 ft 0 kts 301°
2026-04-22 14:00 -5.07817 119.54724 70 ft 0 kts 301°